STARLINK-3965 (52550 NORAD) Tracking and Keplerian Element Data

This shows tracking and keplerian element data for the satellite.

Feedback or suggestion? Click here.




ElementValue
Catalog52550
NameSTARLINK-3965
Epoch Orbit2135
Epoch Day270.04471818
Epoch Year2022
RAAN23.8774
Inclination53.2199
Eccentricity0.0001952
Argument of Perigee50.2345
Mean Anonmoly309.8818
Mean Motion15.08838162
Decay Rate-7.41E-06
L11 52550U 22051T 22270.04471818 -.00000741 00000+0 -28456-4 0 9995
L22 52550 53.2199 23.8774 0001952 50.2345 309.8818 15.08838162 21355

Live tracking and technical data element details for STARLINK-3965 (NORAD 52550). STARLINK-3965 can be tracked NOW for your location showing map with azimuth and elevation plus other details from your city location.

Track the satellite on the map from your city or location and see movement details for azimuth, elevation, latitude, longitude, range, height, and movement on the map or in text.







IsCatalogInMostPopularTable: catalog: 52550, numindb: 12
Update: records affected: 1



GetName: 52550 STARLINK-3965

Hit Count: updated at: Thu, 06 Oct 2022 03:53:50 GMT